MET-2/21
1 22782U 93055A 15337.80431411 .00000088 00000-0 66287-4 0 9993
2 22782 82.5487 109.0824 0022029 202.5100 325.6873 13.83780620124050
OKEAN-4
1 23317U 94066A 15337.81716256 .00000711 00000-0 76435-4 0 9994
2 23317 82.5378 286.0532 0021356 124.5038 274.7529 14.86941878142501
NOAA-14
1 23455U 94089A 15337.31114192 -.00000001 00000-0 22384-4 0 9995
2 23455 98.7412 55.1911 0008759 323.7405 106.4540 14.14061082 79437
NOAA-15
1 25338U 98030A 15337.29698771 .00000080 00000-0 52520-4 0 9995
2 25338 98.7793 336.1078 0011356 41.9251 318.2796 14.25682070912937
RESURS
1 25394U 98043A 15337.22817074 .00000013 00000-0 23696-4 0 9991
2 25394 98.4892 286.3971 0002195 116.2744 20.9462 14.24463172904340
FENGYUN1
1 25730U 99025A 15336.90999429 .00000826 00000-0 45979-3 0 9994
2 25730 98.9583 301.8675 0021150 21.9323 352.3901 14.13728466852897
OKEAN-0
1 25860U 99039A 15337.85445822 .00000357 00000-0 59113-4 0 9996
2 25860 98.1181 306.4163 0001755 102.7074 343.3423 14.76216222881016
NOAA-16
1 26536U 00055A 15337.31974617 .00000025 00000-0 37440-4 0 9998
2 26536 98.9237 42.9716 0011476 112.4784 247.7604 14.13123334783549
NOAA-17
1 27453U 02032A 15337.31065808 .00000038 00000-0 33714-4 0 9991
2 27453 98.3593 315.0905 0012625 50.1726 310.0563 14.24911274698747
NOAA-18
1 28654U 05018A 15337.32062414 .00000029 00000-0 41351-4 0 9999
2 28654 99.1938 334.1788 0013905 203.6070 156.4464 14.12251904542949
NOAA-19
1 33591U 09005A 15336.95966395 .00000158 00000-0 11069-3 0 9999
2 33591 99.0129 287.4182 0014900 56.4965 303.7627 14.12010313351300
HUBBLE
1 20580U 90037B 15337.84284333 .00001280 00000-0 69958-4 0 9990
2 20580 28.4693 114.9660 0002597 259.2512 231.5655 15.07940875205443
ISS
1 25544U 98067A 15337.44412071 .00013695 00000-0 21126-3 0 9991
2 25544 51.6443 319.3468 0008379 232.7014 228.4931 15.54425824974374
CO-58
1 28895U 05043F 15336.93232094 .00000522 00000-0 11022-3 0 9992
2 28895 097.8207 155.9371 0018108 120.8931 239.4056 14.63001806538037
FALCON
1 30776U 07006E 15336.50129186 .00007340 00000-0 27352-3 0 9992
2 30776 35.4259 24.2432 0001215 251.2844 108.7748 15.26808743482020
MAST
1 31126U 07012K 15337.85197834 .00000338 00000-0 82155-4 0 9996
2 31126 97.9851 298.4046 0091753 126.2087 234.7639 14.56221944458175
CAPE1
1 31130U 07012P 15337.83452540 .00000410 00000-0 98126-4 0 9993
2 31130 98.0064 295.8896 0097581 146.7024 214.0364 14.55721036457569
COMPASS
1 32787U 08021E 15337.58856361 .00001608 00000-0 16628-3 0 9990
2 32787 97.6306 19.9250 0012334 204.3011 155.7628 14.91395594411752
AAUSAT2
1 32788U 08021F 15337.59422258 .00001819 00000-0 18232-3 0 9993
2 32788 97.6312 21.7398 0011916 199.7193 160.3568 14.92518950411868
DO-64
1 32789U 08021G 15337.13444933 .00004098 00000-0 32095-3 0 9993
2 32789 97.6277 34.7522 0011790 195.3756 164.7112 15.01505747412415
CO-66
1 32791U 08021J 15336.82841907 .00001246 00000-0 13694-3 0 9999
2 32791 97.6303 16.5135 0012876 215.9069 144.1285 14.89292390411412
RS-30
1 32953U 08025A 15337.65810835 .00000010 00000-0 -13620-7 0 9993
2 32953 82.5050 228.8457 0019817 69.4925 290.8279 12.43065364341662
METEOR-M
1 35865U 09049A 15337.86994226 -.00000042 00000-0 -21221-6 0 9996
2 35865 98.4810 11.9585 0002294 11.0646 94.4629 14.22054059322321
RS-38
1 35869U 09049E 15337.56975912 .00000008 00000-0 22485-4 0 9999
2 35869 98.4724 11.2179 0004679 353.9877 6.1248 14.22319419322336
JUGNU
1 37839U 11058B 15336.91297076 .00000368 00000-0 54623-4 0 9995
2 37839 019.9613 259.6219 0019148 106.1117 313.0183 14.12507607213991
SRMSAT
1 37841U 11058D 15336.95016002 .00000347 00000-0 45846-4 0 9994
2 37841 019.9726 289.5412 0011890 026.8129 017.2463 14.10512401213713
RAX-2
1 37853U 11061D 15337.77821505 .00006539 00000-0 39080-3 0 9995
2 37853 101.7045 272.3157 0189087 299.9681 58.2873 14.97979053222474
AUBIESAT
1 37854U 11061E 15337.77086544 .00006586 00000-0 38237-3 0 9997
2 37854 101.6947 276.6198 0178937 292.8027 65.4367 15.00264391222627
HRBE
1 37855U 11061F 15337.78084978 .00007150 00000-0 40294-3 0 9992
2 37855 101.7052 274.8359 0194601 296.0887 62.0409 14.99127216222543
HORYU-2
1 38340U 12025D 15336.88591705 .00000984 00000-0 15544-3 0 9992
2 38340 98.3345 311.3978 0010582 282.0770 77.9252 14.74683594190391
RS-40
1 38735U 12041C 15337.60129391 .00000040 00000-0 21992-3 0 9994
2 38735 82.4735 314.3396 0016600 167.1119 193.0386 12.42570189151955
PROITERES
1 38756U 12047B 15337.82287602 .00000572 00000-0 90739-4 0 9993
2 38756 98.2275 80.0678 0013284 113.3697 246.8908 14.76018968174022
BEESAT-3
1 39134U 13015E 15336.95928191 .00004447 00000-0 25263-3 0 9992
2 39134 064.8717 236.8265 0019385 232.8652 127.0702 15.14063234143850
BEESAT-2
1 39136U 13015G 15337.74234841 .00003573 00000-0 21638-3 0 9995
2 39136 64.8727 238.2195 0019913 230.8693 129.0661 15.12109305144283
ZACUBE-1
1 39417U 13066B 15336.75950399 .00000867 00000-0 11801-3 0 9990
2 39417 97.7096 32.7896 0058855 308.0007 51.5900 14.80067315109564
TRITON-1
1 39427U 13066M 15337.11628625 .00000649 00000-0 11341-3 0 9993
2 39427 97.6937 17.7521 0114882 348.2693 11.5840 14.66927419108625
DELFIN3XT
1 39428U 13066N 15337.66535884 .00001110 00000-0 19005-3 0 9997
2 39428 97.6955 16.3048 0123073 352.3623 7.5703 14.65854469108565
GOMX-1
1 39430U 13066Q 15337.56298956 .00000744 00000-0 14550-3 0 9997
2 39430 97.6894 8.2992 0153627 16.4311 344.1788 14.58333059108065
LO-74
1 39440U 13066AA 15337.08583036 .00000754 00000-0 11422-3 0 9997
2 39440 97.7030 26.9980 0080646 322.5552 37.0055 14.74856492109224
PUCPSAT-1
1 39442U 13066AC 15336.84173026 .00001405 00000-0 15339-3 0 9991
2 39442 97.7221 42.8901 0031344 286.4887 73.2887 14.89158255108961
SPROUT
1 39770U 14029E 15337.14200621 .00002085 00000-0 25357-3 0 9997
2 39770 97.8736 71.7391 0009639 16.5836 343.5692 14.84511787 82695
POPSAT-HIP1
1 40028U 14033U 15337.80088713 .00001426 00000-0 16334-3 0 9992
2 40028 97.9423 238.3144 0014374 352.3487 7.7493 14.87470982 78999
EO-80
1 40032U 14033Y 15337.69816036 .00001223 00000-0 14215-3 0 9992
2 40032 97.9389 237.7175 0012013 349.7732 10.3238 14.87153971 78963
VELOX-1
1 40057U 14034E 15337.81033390 .00001302 00000-0 19539-3 0 9990
2 40057 98.2062 58.6392 0012329 59.8424 300.3999 14.76286705 76908
DAURIA DX 1
1 40071U 14037C 15337.83471608 .00000602 00000-0 85858-4 0 9999
2 40071 98.3438 56.1159 0009751 59.6422 300.5744 14.80614151 75899
UKUBE-1
1 40074U 14037F 15337.85490357 .00001323 00000-0 17137-3 0 9991
2 40074 98.3465 57.4931 0005847 66.8146 293.3672 14.82649890 75977
HODOYOSHI-1
1 40299U 14070B 15337.81637925 .00003121 00000-0 14644-3 0 9995
2 40299 97.4457 57.2368 0012353 258.0980 240.9488 15.20344222 59586
CHUBUSAT-1
1 40300U 14070C 15337.82936459 .00003443 00000-0 16823-3 0 9991
2 40300 97.4427 56.0294 0020166 263.8043 235.9191 15.18745099 59518
QSAT-EOS
1 40301U 14070D 15337.82492476 .00006358 00000-0 30347-3 0 9993
2 40301 97.4379 55.2411 0029234 264.1606 235.8885 15.19031764 59473
TSUBAME
1 40302U 14070E 15337.85320693 .00003214 00000-0 17662-3 0 9991
2 40302 97.4346 52.9599 0040475 271.8026 200.5220 15.14122615 59338
FIREBIRD FU3
1 40377U 15003B 15337.63633890 .00004988 00000-0 23825-3 0 9999
2 40377 99.0977 42.5688 0152102 57.9331 303.6561 15.09952495 46100
FIREBIRD FU4
1 40378U 15003C 15337.63361572 .00004913 00000-0 23452-3 0 9999
2 40378 99.0977 42.5740 0152371 57.8830 303.7080 15.09952916 46106
